GW6341 Weather Reports


time (UTC)temp
C
wind
direction
speed
KPH
gust
KPH
rain 1hr
cm
rain 24hr
cm
rain mn
cm
humidity
%
barometer
mb
20260507202817 17 88 3.2 3.2 0.00 0.00 0.00 70 1017.9
20260507202313 17 128 6.4 9.7 0.00 0.00 0.00 65 1017.9
20260507201808 17 42 4.8 4.8 0.00 0.00 0.00 64 1018.0
20260507201305 17 104 4.8 4.8 0.00 0.00 0.00 68 1018.0
20260507200801 17 159 4.8 4.8 0.00 0.00 0.00 69 1018.1
20260507200257 17 117 3.2 4.8 0.00 0.00 0.00 67 1018.1
20260507195753 17 174 6.4 8.0 0.00 0.00 0.00 67 1018.1
20260507195251 17 23 1.6 1.6 0.00 0.00 0.00 63 1018.3
20260507194748 17 302 1.6 1.6 0.00 0.00 0.00 62 1018.4
20260507194244 17 140 4.8 8.0 0.00 0.00 0.00 68 1018.5
20260507193740 16 115 1.6 3.2 0.00 0.00 0.00 69 1018.4
20260507193237 16 202 6.4 8.0 0.00 0.00 0.00 70 1018.5
20260507192733 16 126 1.6 1.6 0.00 0.00 0.00 69 1018.6
20260507192230 16 127 3.2 3.2 0.00 0.00 0.00 68 1018.5
20260507191726 16 176 4.8 8.0 0.00 0.00 0.00 75 1018.7
20260507191224 16 89 3.2 3.2 0.00 0.00 0.00 71 1018.8
20260507190720 16 244 3.2 4.8 0.00 0.00 0.00 67 1018.6
20260507190219 15 152 4.8 4.8 0.00 0.00 0.00 77 1018.6
20260507185717 16 118 6.4 12.9 0.00 0.00 0.00 76 1018.6
20260507185213 16 80 1.6 1.6 0.00 0.00 0.00 75 1018.8
20260507184711 15 86 4.8 8.0 0.00 0.00 0.00 73 1018.7
20260507184209 16 182 4.8 4.8 0.00 0.00 0.00 74 1018.9
20260507183705 16 114 4.8 8.0 0.00 0.00 0.00 73 1018.7
20260507183202 15 212 4.8 8.0 0.00 0.00 0.00 71 1018.8
20260507182659 15 73 1.6 1.6 0.00 0.00 0.00 70 1018.8
20260507182155 15 106 4.8 8.0 0.00 0.00 0.00 74 1018.9
20260507181651 15 74 3.2 3.2 0.00 0.00 0.00 73 1019.0
20260507181148 15 92 8.0 9.7 0.00 0.00 0.00 73 1018.8
20260507180644 15 99 6.4 9.7 0.00 0.00 0.00 74 1018.8
20260507180142 16 134 1.6 3.2 0.00 0.00 0.00 71 1019.1
20260507175637 15 105 4.8 8.0 0.00 0.00 0.00 73 1019.0
20260507175135 15 239 3.2 3.2 0.00 0.00 0.00 71 1019.1
20260507174631 14 196 1.6 3.2 0.00 0.00 0.00 75 1019.1
20260507174130 14 50 0.0 0.0 0.00 0.00 0.00 76 1019.1
20260507173626 13 93 1.6 1.6 0.00 0.00 0.00 77 1019.2
20260507173123 13 139 3.2 3.2 0.00 0.00 0.00 79 1019.0
20260507172620 13 163 1.6 1.6 0.00 0.00 0.00 79 1019.4
20260507172117 13 118 1.6 1.6 0.00 0.00 0.00 80 1019.3
20260507171612 13 164 3.2 3.2 0.00 0.00 0.00 80 1019.2
20260507171109 13 119 3.2 3.2 0.00 0.00 0.00 83 1019.3
20260507170606 13 173 3.2 3.2 0.00 0.00 0.00 81 1019.2
20260507170103 14 161 1.6 3.2 0.00 0.00 0.00 80 1018.9
20260507165558 13 188 4.8 4.8 0.00 0.00 0.00 79 1019.1
20260507165055 14 162 4.8 8.0 0.00 0.00 0.00 82 1019.2
20260507164551 13 164 4.8 4.8 0.00 0.00 0.00 77 1019.0
20260507164049 13 55 1.6 3.2 0.00 0.00 0.00 81 1019.2
20260507163546 13 79 0.0 0.0 0.00 0.00 0.00 85 1019.2
20260507163044 12 141 1.6 1.6 0.00 0.00 0.00 83 1019.3
20260507162544 12 132 4.8 4.8 0.00 0.00 0.00 86 1019.4
20260507162041 12 142 0.0 1.6 0.00 0.00 0.00 88 1019.4
20260507161539 12 147 1.6 1.6 0.00 0.00 0.00 87 1019.1
20260507161034 12 190 3.2 3.2 0.00 0.00 0.00 87 1019.4
20260507160530 12 60 1.6 3.2 0.00 0.00 0.00 87 1019.3
20260507160027 12 73 0.0 0.0 0.00 0.00 0.00 86 1019.1
20260507155522 12 155 3.2 3.2 0.00 0.00 0.00 88 1019.3
20260507155020 12 58 0.0 0.0 0.00 0.00 0.00 87 1019.5
20260507154516 11 85 1.6 1.6 0.00 0.00 0.00 89 1019.4
20260507154013 11 66 0.0 1.6 0.00 0.00 0.00 89 1019.4
20260507153510 11 91 0.0 0.0 0.00 0.00 0.00 88 1019.4
20260507153006 11 77 0.0 1.6 0.00 0.00 0.00 90 1019.3
20260507152502 11 65 0.0 0.0 0.00 0.00 0.00 90 1019.5
20260507151959 11 105 1.6 1.6 0.00 0.00 0.00 90 1019.4
20260507151455 11 90 0.0 1.6 0.00 0.00 0.00 90 1019.4
20260507150952 11 91 1.6 1.6 0.00 0.00 0.00 92 1019.5
20260507150449 11 103 1.6 3.2 0.00 0.00 0.00 91 1019.6
20260507145945 11 89 1.6 1.6 0.00 0.00 0.00 91 1019.3
20260507145441 11 90 1.6 1.6 0.00 0.00 0.00 92 1019.2
20260507144938 11 89 0.0 0.0 0.00 0.00 0.00 94 1019.4
20260507144435 10 89 1.6 1.6 0.00 0.00 0.00 93 1019.4
20260507143932 10 82 1.6 1.6 0.00 0.00 0.00 94 1019.5
20260507143430 10 79 1.6 1.6 0.00 0.00 0.00 95 1019.4
20260507142926 10 78 1.6 1.6 0.00 0.00 0.00 95 1019.5
20260507142422 10 78 1.6 1.6 0.00 0.00 0.00 95 1019.4
20260507141919 10 63 0.0 0.0 0.00 0.00 0.00 95 1019.4
20260507141415 10 63 0.0 0.0 0.00 0.00 0.00 96 1019.3
20260507140912 10 63 0.0 0.0 0.00 0.00 0.00 97 1019.2
20260507140408 10 63 0.0 0.0 0.00 0.00 0.00 97 1019.2
20260507135907 10 63 0.0 0.0 0.00 0.00 0.00 97 1019.0
20260507135403 10 62 0.0 0.0 0.00 0.00 0.00 97 1019.3
20260507134900 10 32 0.0 0.0 0.00 0.00 0.00 97 1019.0
20260507134356 10 6 0.0 0.0 0.00 0.00 0.00 97 1019.1
20260507133852 10 9 0.0 0.0 0.00 0.00 0.00 97 1019.2
20260507133348 10 7 0.0 0.0 0.00 0.00 0.00 97 1018.8
20260507132847 10 36 0.0 0.0 0.00 0.00 0.00 97 1018.8
20260507132343 10 37 0.0 0.0 0.00 0.00 0.00 98 1019.0
20260507131840 10 18 0.0 0.0 0.00 0.00 0.00 98 1019.1
20260507131337 10 39 0.0 0.0 0.00 0.00 0.00 98 1019.1
20260507130834 10 39 0.0 0.0 0.00 0.00 0.00 98 1018.9
20260507130331 10 40 0.0 0.0 0.00 0.00 0.00 98 1019.2
20260507125830 10 40 0.0 0.0 0.00 0.00 0.00 98 1019.1
20260507125327 10 40 0.0 0.0 0.00 0.00 0.00 98 1019.2
20260507124824 10 40 0.0 0.0 0.00 0.00 0.00 98 1019.2
20260507124320 10 40 0.0 0.0 0.00 0.00 0.00 98 1019.3
20260507123819 10 40 0.0 0.0 0.00 0.00 0.00 98 1018.9
20260507123316 10 40 0.0 0.0 0.00 0.00 0.00 98 1019.0
20260507122812 10 39 0.0 0.0 0.00 0.00 0.00 97 1019.1
20260507122308 10 39 0.0 0.0 0.00 0.00 0.00 97 1019.2
20260507121804 10 69 0.0 0.0 0.00 0.00 0.00 97 1019.3
20260507121300 10 58 0.0 0.0 0.00 0.00 0.00 96 1019.1
20260507120756 10 11 0.0 0.0 0.00 0.00 0.00 96 1019.3
20260507120253 10 11 0.0 0.0 0.00 0.00 0.00 96 1019.3
20260507115749 10 10 0.0 1.6 0.00 0.00 0.00 96 1019.3
20260507115245 10 48 0.0 0.0 0.00 0.00 0.00 97 1019.4
20260507114740 10 68 0.0 0.0 0.00 0.00 0.00 97 1019.5
20260507114238 10 68 0.0 0.0 0.00 0.00 0.00 97 1019.5
20260507113735 10 68 0.0 0.0 0.00 0.00 0.00 96 1019.5
20260507113232 10 68 0.0 0.0 0.00 0.00 0.00 96 1019.4
20260507112729 10 68 0.0 0.0 0.00 0.00 0.00 96 1019.5
20260507112226 10 68 0.0 0.0 0.00 0.00 0.00 96 1019.5
20260507111724 10 68 0.0 0.0 0.00 0.00 0.00 96 1019.4
20260507111221 10 68 0.0 0.0 0.00 0.00 0.00 96 1019.5
20260507110716 10 68 0.0 0.0 0.00 0.00 0.00 96 1019.5
20260507110213 10 68 0.0 0.0 0.00 0.00 0.00 96 1019.8
20260507105710 10 68 0.0 0.0 0.00 0.00 0.00 96 1019.8
20260507105206 10 68 0.0 0.0 0.00 0.00 0.00 96 1019.8
20260507104704 10 68 0.0 0.0 0.00 0.00 0.00 96 1019.6
20260507104200 10 68 0.0 0.0 0.00 0.00 0.00 96 1019.7
20260507103656 10 68 0.0 0.0 0.00 0.00 0.00 96 1019.6
20260507103153 10 68 0.0 0.0 0.00 0.00 0.00 96 1019.7
20260507102649 10 68 0.0 0.0 0.00 0.00 0.00 96 1019.6
20260507102145 10 68 0.0 0.0 0.00 0.00 0.00 96 1019.8
20260507101641 10 68 0.0 0.0 0.00 0.00 0.00 96 1019.7
20260507101137 10 68 0.0 0.0 0.00 0.00 0.00 96 1019.7
20260507100635 10 68 0.0 0.0 0.00 0.00 0.00 96 1019.7
20260507100133 10 68 0.0 0.0 0.00 0.00 0.00 96 1019.7
20260507095631 10 68 0.0 0.0 0.00 0.00 0.00 96 1019.7
20260507095127 10 68 0.0 0.0 0.00 0.00 0.00 95 1019.9
20260507094624 10 68 0.0 0.0 0.00 0.00 0.00 95 1019.9
20260507094120 10 68 0.0 0.0 0.00 0.00 0.00 95 1020.2
20260507093618 10 69 0.0 0.0 0.00 0.00 0.00 95 1020.0
20260507093116 10 70 0.0 0.0 0.00 0.00 0.00 95 1020.1
20260507092612 10 70 0.0 0.0 0.00 0.00 0.00 95 1020.1
20260507092109 10 30 0.0 0.0 0.00 0.00 0.00 95 1020.3
20260507091606 9 30 0.0 0.0 0.00 0.00 0.00 95 1020.2
20260507091102 9 30 0.0 0.0 0.00 0.00 0.00 95 1020.3
20260507090558 9 30 0.0 0.0 0.00 0.00 0.00 95 1020.3
20260507090055 9 30 0.0 0.0 0.00 0.00 0.00 95 1020.3
20260507085552 9 30 0.0 0.0 0.00 0.00 0.00 95 1020.3
20260507085049 9 30 0.0 0.0 0.00 0.00 0.00 96 1020.5
20260507084545 9 30 0.0 0.0 0.00 0.00 0.00 96 1020.3
20260507084042 9 30 0.0 0.0 0.00 0.00 0.00 96 1020.2
20260507083539 9 30 0.0 0.0 0.00 0.00 0.00 96 1020.2
20260507083036 9 30 0.0 0.0 0.00 0.00 0.00 96 1020.3
20260507082532 9 30 0.0 0.0 0.00 0.00 0.00 97 1020.3
20260507082028 9 30 0.0 0.0 0.00 0.00 0.00 96 1020.2
20260507081525 9 30 0.0 0.0 0.00 0.00 0.00 96 1020.2
20260507081022 9 30 0.0 0.0 0.00 0.00 0.00 97 1020.2
20260507080517 9 30 0.0 0.0 0.00 0.00 0.00 97 1020.0
20260507080014 9 30 0.0 0.0 0.00 0.00 0.00 97 1020.3
20260507075509 9 30 0.0 0.0 0.00 0.00 0.00 97 1020.3
20260507075006 8 30 0.0 0.0 0.00 0.00 0.00 97 1020.3
20260507074503 8 30 0.0 0.0 0.00 0.00 0.00 97 1020.4
20260507074001 8 30 0.0 0.0 0.00 0.00 0.00 97 1020.2
20260507073457 8 30 0.0 0.0 0.00 0.00 0.00 97 1020.6
20260507072954 8 30 0.0 0.0 0.00 0.00 0.00 97 1020.4
20260507072451 9 30 0.0 0.0 0.00 0.00 0.00 97 1020.2
20260507071948 8 29 0.0 0.0 0.00 0.00 0.00 97 1020.3
20260507071445 8 29 0.0 0.0 0.00 0.00 0.00 98 1020.1
20260507070942 8 38 0.0 0.0 0.00 0.00 0.00 98 1020.4
20260507070440 8 38 0.0 0.0 0.00 0.00 0.00 98 1020.0
20260507065936 8 37 0.0 0.0 0.00 0.00 0.00 98 1020.2
20260507065433 8 38 0.0 0.0 0.00 0.00 0.00 98 1020.2
20260507064930 8 39 0.0 0.0 0.00 0.00 0.00 98 1020.3
20260507064428 8 39 0.0 0.0 0.00 0.00 0.00 98 1020.4
20260507063926 8 39 0.0 0.0 0.00 0.00 0.00 98 1020.3
20260507063422 8 39 0.0 0.0 0.00 0.00 0.00 98 1020.3
20260507062920 8 39 0.0 0.0 0.00 0.00 0.00 97 1020.2
20260507062417 8 39 0.0 0.0 0.00 0.00 0.00 97 1020.3
20260507061914 8 39 0.0 0.0 0.00 0.00 0.00 97 1020.2
20260507061412 8 39 0.0 0.0 0.00 0.00 0.00 97 1020.2
20260507060910 8 39 0.0 0.0 0.00 0.00 0.00 97 1020.3
20260507060406 9 39 0.0 0.0 0.00 0.00 0.00 97 1020.4
20260507055903 9 39 0.0 0.0 0.00 0.00 0.00 96 1020.2
20260507055358 9 39 0.0 0.0 0.00 0.00 0.00 96 1020.5
20260507054856 9 47 0.0 0.0 0.00 0.00 0.00 96 1020.3
20260507054352 9 22 0.0 0.0 0.00 0.00 0.00 96 1020.4
20260507053849 10 22 1.6 1.6 0.00 0.00 0.00 95 1020.2
20260507053347 10 32 0.0 0.0 0.00 0.00 0.00 96 1020.1
20260507052845 10 32 0.0 0.0 0.00 0.00 0.00 95 1020.2
20260507052342 10 32 0.0 1.6 0.00 0.00 0.00 95 1020.3
20260507051839 10 31 0.0 0.0 0.00 0.00 0.00 95 1020.3
20260507051337 10 31 0.0 1.6 0.00 0.00 0.00 95 1020.3
20260507050833 10 32 0.0 0.0 0.00 0.00 0.00 95 1020.3
20260507050330 10 32 0.0 0.0 0.00 0.00 0.00 95 1020.3
20260507045827 10 38 0.0 0.0 0.00 0.00 0.00 95 1020.2
20260507045323 10 36 0.0 1.6 0.00 0.00 0.00 95 1020.1
20260507044820 10 36 0.0 1.6 0.00 0.00 0.00 95 1020.1
20260507044317 10 22 0.0 1.6 0.00 0.00 0.00 95 1019.9
20260507043813 10 21 0.0 0.0 0.00 0.00 0.00 95 1019.9
20260507043310 10 24 0.0 1.6 0.00 0.00 0.00 94 1020.1
20260507042806 10 27 1.6 1.6 0.00 0.00 0.00 94 1020.1
20260507042301 10 28 0.0 0.0 0.00 0.00 0.00 94 1020.0
20260507041759 10 25 1.6 1.6 0.00 0.00 0.00 93 1019.7
20260507041255 10 28 1.6 1.6 0.00 0.00 0.00 93 1019.8
20260507040752 10 28 0.0 1.6 0.00 0.00 0.00 93 1019.8
20260507040248 11 20 1.6 1.6 0.00 0.00 0.00 93 1019.8
20260507035745 11 28 1.6 1.6 0.00 0.00 0.00 92 1019.4
20260507035240 11 36 0.0 0.0 0.00 0.00 0.00 91 1019.4
20260507034738 11 37 0.0 1.6 0.00 0.00 0.00 91 1019.5
20260507034235 11 68 0.0 0.0 0.00 0.00 0.00 90 1019.3
20260507033733 12 30 0.0 1.6 0.00 0.00 0.00 90 1019.5
20260507033230 12 45 0.0 0.0 0.00 0.00 0.00 90 1019.4
20260507032728 12 36 0.0 1.6 0.00 0.00 0.00 90 1019.4
20260507032223 12 38 0.0 0.0 0.00 0.00 0.00 90 1019.4
20260507031720 12 36 0.0 0.0 0.00 0.00 0.00 89 1019.3
20260507031217 12 50 0.0 1.6 0.00 0.00 0.00 88 1019.2
20260507030714 12 59 0.0 0.0 0.00 0.00 0.00 87 1019.2
20260507030211 12 69 0.0 0.0 0.00 0.00 0.00 87 1019.3
20260507025708 13 57 0.0 0.0 0.00 0.00 0.00 86 1019.0
20260507025205 13 59 0.0 0.0 0.00 0.00 0.00 85 1019.3
20260507024703 13 67 0.0 0.0 0.00 0.00 0.00 85 1019.2
20260507024200 13 69 0.0 0.0 0.00 0.00 0.00 84 1018.9
20260507023655 13 37 1.6 1.6 0.00 0.00 0.00 84 1019.0
20260507023153 14 71 0.0 0.0 0.00 0.00 0.00 83 1019.1
20260507022650 14 108 0.0 1.6 0.00 0.00 0.00 83 1019.0
20260507022146 15 79 0.0 0.0 0.00 0.00 0.00 82 1019.0
20260507021642 15 131 1.6 1.6 0.00 0.00 0.00 80 1019.4
20260507021137 15 80 0.0 0.0 0.00 0.00 0.00 80 1019.2
20260507020636 15 143 4.8 8.0 0.00 0.00 0.00 81 1019.1
20260507020132 15 77 0.0 0.0 0.00 0.00 0.00 81 1019.0
20260507015631 15 90 0.0 0.0 0.00 0.00 0.00 81 1019.1
20260507015128 15 193 4.8 4.8 0.00 0.00 0.00 80 1019.1
20260507014624 15 103 1.6 3.2 0.00 0.00 0.00 80 1019.1
20260507014120 16 187 3.2 3.2 0.00 0.00 0.00 78 1019.1
20260507013617 16 153 4.8 8.0 0.00 0.00 0.00 79 1019.0
20260507013114 16 108 4.8 4.8 0.00 0.00 0.00 79 1019.0
20260507012612 16 195 4.8 4.8 0.00 0.00 0.00 77 1019.1
20260507012107 16 183 3.2 3.2 0.00 0.00 0.00 77 1019.2
20260507011605 16 152 3.2 3.2 0.00 0.00 0.00 76 1018.9
20260507011101 16 117 6.4 9.7 0.00 0.00 0.00 77 1019.2
20260507010556 17 148 3.2 3.2 0.00 0.00 0.00 77 1019.3
20260507010052 17 120 1.6 1.6 0.00 0.00 0.00 78 1019.2
20260507005550 17 164 6.4 8.0 0.00 0.00 0.00 76 1019.2
20260507005046 17 59 1.6 1.6 0.00 0.00 0.00 76 1019.1
20260507004543 17 131 8.0 11.3 0.00 0.00 0.00 75 1019.1
20260507004040 17 166 3.2 4.8 0.00 0.00 0.00 73 1019.1
20260507003536 18 120 1.6 3.2 0.00 0.00 0.00 72 1018.9
20260507003031 18 116 1.6 3.2 0.00 0.00 0.00 74 1018.9
20260507002528 18 138 3.2 4.8 0.00 0.00 0.00 74 1018.9
20260507002024 19 135 3.2 3.2 0.00 0.00 0.00 69 1019.1
20260507001521 18 35 0.0 1.6 0.00 0.00 0.00 71 1019.1
20260507001018 19 137 3.2 3.2 0.00 0.00 0.00 71 1019.1
20260507000514 18 125 3.2 3.2 0.00 0.00 0.00 72 1019.2
20260507000010 18 141 6.4 8.0 0.00 0.00 0.00 71 1019.0
20260506235507 18 104 3.2 3.2 0.00 0.00 0.00 72 1019.0
20260506235003 19 134 11.3 12.9 0.00 0.00 0.00 71 1018.8
20260506234500 18 72 0.0 0.0 0.00 0.00 0.00 70 1019.0
20260506233958 19 108 4.8 4.8 0.00 0.00 0.00 71 1018.9
20260506233454 19 240 3.2 3.2 0.00 0.00 0.00 71 1019.1
20260506232951 19 104 3.2 3.2 0.00 0.00 0.00 68 1018.8
20260506232447 20 179 6.4 8.0 0.00 0.00 0.00 73 1018.8
20260506231943 20 261 4.8 8.0 0.00 0.00 0.00 70 1018.9
20260506231441 20 202 6.4 9.7 0.00 0.00 0.00 69 1018.9
20260506230938 20 156 4.8 9.7 0.00 0.00 0.00 72 1019.1
20260506230434 20 142 6.4 8.0 0.00 0.00 0.00 69 1019.1
20260506225931 20 121 11.3 14.5 0.00 0.00 0.00 71 1018.9
20260506225428 20 193 4.8 4.8 0.00 0.00 0.00 70 1019.0
20260506224925 20 160 4.8 8.0 0.00 0.00 0.00 72 1019.1
20260506224422 20 155 4.8 8.0 0.00 0.00 0.00 70 1019.0
20260506223919 20 135 6.4 8.0 0.00 0.00 0.00 72 1019.1
20260506223414 20 184 6.4 9.7 0.00 0.00 0.00 71 1019.1
20260506222911 20 142 9.7 12.9 0.00 0.00 0.00 70 1019.4
20260506222408 20 236 4.8 8.0 0.00 0.00 0.00 70 1019.2
20260506221905 20 184 6.4 9.7 0.00 0.00 0.00 72 1019.2
20260506221402 20 90 3.2 3.2 0.00 0.00 0.00 72 1019.2
20260506220859 20 145 8.0 8.0 0.00 0.00 0.00 70 1019.1
20260506220355 20 105 0.0 1.6 0.00 0.00 0.00 71 1019.3
20260506215852 20 118 3.2 3.2 0.00 0.00 0.00 69 1019.3
20260506215348 20 137 8.0 11.3 0.00 0.00 0.00 72 1019.2
20260506214844 19 94 4.8 8.0 0.00 0.00 0.00 70 1019.2
20260506214341 19 108 4.8 4.8 0.00 0.00 0.00 74 1019.5
20260506213839 19 48 6.4 9.7 0.00 0.00 0.00 75 1019.4
20260506213336 19 109 8.0 11.3 0.00 0.00 0.00 68 1019.2
20260506212833 19 88 3.2 8.0 0.00 0.00 0.00 71 1019.3
20260506212329 19 48 1.6 1.6 0.00 0.00 0.00 69 1019.3
20260506211824 19 57 1.6 3.2 0.00 0.00 0.00 73 1019.4
20260506211320 19 83 1.6 3.2 0.00 0.00 0.00 73 1019.2
20260506210818 20 168 1.6 3.2 0.00 0.00 0.00 73 1019.3
20260506210314 18 85 0.0 1.6 0.00 0.00 0.00 72 1019.4
20260506205812 18 111 4.8 4.8 0.00 0.00 0.00 74 1019.4
20260506205307 18 197 4.8 4.8 0.00 0.00 0.00 72 1019.6
20260506204804 18 162 1.6 3.2 0.00 0.00 0.00 78 1019.5
20260506204302 17 151 4.8 4.8 0.00 0.00 0.00 73 1019.5
20260506203800 17 179 4.8 4.8 0.00 0.00 0.00 75 1019.7
20260506203257 18 176 4.8 4.8 0.00 0.00 0.00 76 1019.6